Location: Napier
(39.4830°S, 176.9170°E)
Time: 14:26:38
(UTC+12:00)

BREEZE-M DEB (TANK) - Pass Details

Date: 15 August 2020
Orbit: 332 x 16593 km, 49.5° (Epoch: 22 September)

Event Time Altitude Azimuth Distance (km) Brightness Sun altitude
Rises 20:13:52 0° 315° (NW) 10,905 9.4 -31.2°
Reaches altitude 10° 20:24:48 10° 315° (NW) 7,252 8.3 -33.3°
Enters shadow 20:39:01 56° 337° (NNW) 1,595 4.5 -36.0°
